EW6996 Weather Reports


Display with metric or nautical units.
time (UTC)temp
F
wind
direction
speed
MPH
gust
MPH
rain 1hr
in
rain 24hr
in
rain mn
in
humidity
%
barometer
mb
20180524055439 60 72 0.0 0.0 0.00 0.00 0.00 63 1028.0
20180524054938 60 106 0.0 0.0 0.00 0.00 0.00 63 1028.1
20180524054438 60 115 0.0 0.0 0.00 0.00 0.00 62 1028.1
20180524053938 60 90 0.0 0.0 0.00 0.00 0.00 63 1028.0
20180524053440 61 99 0.0 0.0 0.00 0.00 0.00 62 1027.9
20180524052938 61 101 0.0 0.0 0.00 0.00 0.00 62 1027.7
20180524052438 61 99 0.0 0.0 0.00 0.00 0.00 61 1027.7
20180524051938 62 99 0.0 0.0 0.00 0.00 0.00 61 1027.6
20180524051438 62 100 0.0 0.0 0.00 0.00 0.00 60 1027.5
20180524050938 63 103 0.0 0.0 0.00 0.00 0.00 59 1027.5
20180524050438 63 107 0.0 0.0 0.00 0.00 0.00 59 1027.4
20180524045937 64 102 0.0 0.0 0.00 0.00 0.00 58 1027.4
20180524045437 65 109 0.0 0.0 0.00 0.00 0.00 56 1027.4
20180524044933 65 103 0.0 0.0 0.00 0.00 0.00 54 1027.3
20180524044438 65 102 0.0 5.0 0.00 0.00 0.00 52 1027.1
20180524043937 66 101 0.0 5.0 0.00 0.00 0.00 53 1027.0
20180524043437 66 84 0.0 8.0 0.00 0.00 0.00 52 1027.0
20180524042936 66 358 2.0 8.0 0.00 0.00 0.00 52 1026.9
20180524042437 66 77 0.0 5.0 0.00 0.00 0.00 52 1026.9
20180524041936 66 51 1.0 5.0 0.00 0.00 0.00 52 1026.8
20180524041437 66 213 2.0 8.0 0.00 0.02 0.00 51 1026.8
20180524040938 67 293 2.0 8.0 0.00 0.06 0.00 51 1026.7
20180524040436 67 72 2.0 8.0 0.00 0.06 0.00 51 1026.8
20180524035936 67 86 3.0 8.0 0.00 0.06 0.00 52 1026.7
20180524035436 67 152 1.0 5.0 0.00 0.07 0.00 51 1026.8
20180524034936 67 278 1.0 5.0 0.00 0.09 0.00 51 1026.7
20180524034436 68 330 1.0 5.0 0.00 0.18 0.00 50 1026.7
20180524033935 68 28 0.0 5.0 0.00 0.18 0.00 50 1026.6
20180524033436 69 179 1.0 5.0 0.00 0.18 0.00 48 1026.6
20180524032937 69 101 0.0 5.0 0.00 0.18 0.00 46 1026.4
20180524032437 69 88 0.0 8.0 0.00 0.18 0.00 45 1026.1
20180524031935 69 22 2.0 8.0 0.00 0.18 0.00 44 1026.1
20180524031437 69 42 4.0 8.0 0.00 0.18 0.00 43 1026.0
20180524030935 69 29 4.0 10.0 0.00 0.18 0.00 43 1025.8
20180524030435 69 98 0.0 10.0 0.00 0.18 0.00 44 1026.1
20180524025935 70 58 0.0 8.0 0.00 0.18 0.00 44 1026.1
20180524025435 70 349 6.0 10.0 0.00 0.18 0.00 44 1026.0
20180524024935 70 43 0.0 10.0 0.00 0.18 0.00 44 1026.1
20180524024434 70 4 7.0 10.0 0.00 0.18 0.00 43 1026.0
20180524023934 71 73 1.0 10.0 0.00 0.18 0.00 43 1025.7
20180524023434 71 100 0.0 13.0 0.00 0.18 0.00 43 1025.5
20180524022936 71 1 8.0 15.0 0.00 0.18 0.00 43 1025.4
20180524022434 72 26 2.0 15.0 0.00 0.18 0.00 42 1025.1
20180524021934 73 48 7.0 13.0 0.00 0.18 0.00 42 1024.9
20180524021434 73 36 2.0 15.0 0.00 0.18 0.00 41 1024.9
20180524020934 74 30 4.0 15.0 0.00 0.18 0.00 40 1024.9
20180524020434 74 32 8.0 17.0 0.00 0.18 0.00 39 1024.9
20180524015934 75 21 6.0 17.0 0.00 0.18 0.00 38 1024.8
20180524015434 75 97 2.0 17.0 0.00 0.18 0.00 37 1024.6
20180524014935 75 15 6.0 15.0 0.00 0.18 0.00 37 1024.5
20180524014434 76 5 5.0 15.0 0.00 0.18 0.00 36 1024.5
20180524013933 76 114 5.0 15.0 0.00 0.18 0.00 34 1024.5
20180524013433 76 8 8.0 15.0 0.00 0.18 0.00 33 1024.5
20180524012933 77 45 5.0 10.0 0.00 0.18 0.00 32 1024.5
20180524012434 77 305 6.0 15.0 0.00 0.18 0.00 32 1024.4
20180524011933 77 262 4.0 17.0 0.00 0.18 0.00 31 1024.3
20180524011433 78 30 3.0 17.0 0.00 0.18 0.00 30 1024.2
20180524010932 78 111 1.0 15.0 0.00 0.18 0.00 27 1024.0
20180524010433 79 347 2.0 20.0 0.00 0.18 0.00 25 1023.9
20180524005932 79 336 9.0 20.0 0.00 0.18 0.00 21 1023.9
20180524005432 80 303 4.0 13.0 0.00 0.18 0.00 20 1023.9
20180524004932 80 299 6.0 13.0 0.00 0.18 0.00 19 1023.9
20180524004432 81 84 1.0 15.0 0.00 0.18 0.00 19 1023.9
20180524003931 81 142 3.0 17.0 0.00 0.18 0.00 19 1023.8
20180524003432 82 33 1.0 20.0 0.00 0.18 0.00 19 1023.7
20180524002932 82 46 6.0 20.0 0.00 0.18 0.00 13 1023.7
20180524002432 82 201 9.0 10.0 0.00 0.18 0.00 12 1023.7
20180524001931 82 262 7.0 10.0 0.00 0.18 0.00 12 1023.7
20180524001431 82 135 1.0 8.0 0.00 0.18 0.00 12 1023.7
20180524000932 82 160 1.0 8.0 0.00 0.18 0.00 12 1023.7
20180524000431 82 112 0.0 10.0 0.00 0.18 0.00 12 1023.7
20180523235931 82 185 3.0 10.0 0.00 0.18 0.00 10 1023.7
20180523235430 82 150 3.0 13.0 0.00 0.18 0.00 10 1023.8
20180523234931 82 112 4.0 13.0 0.00 0.18 0.00 10 1023.8
20180523234433 83 194 5.0 13.0 0.00 0.18 0.00 10 1023.8
20180523233930 83 193 9.0 13.0 0.00 0.18 0.00 10 1023.8
20180523233431 83 245 5.0 8.0 0.00 0.18 0.00 10 1023.8
20180523232930 83 167 6.0 10.0 0.00 0.18 0.00 12 1023.7
20180523232431 83 153 3.0 13.0 0.00 0.18 0.00 12 1023.8
20180523231930 83 182 2.0 13.0 0.00 0.18 0.00 10 1023.8
20180523231430 83 116 0.0 13.0 0.00 0.18 0.00 11 1023.7
20180523230930 83 266 5.0 13.0 0.00 0.18 0.00 12 1023.8
20180523230432 83 202 1.0 10.0 0.00 0.18 0.00 11 1023.8
20180523225930 83 170 3.0 10.0 0.00 0.18 0.00 12 1023.9
20180523225430 83 105 0.0 10.0 0.00 0.18 0.00 10 1023.9
20180523224929 83 323 3.0 15.0 0.00 0.18 0.00 11 1023.9
20180523224429 82 246 4.0 15.0 0.00 0.18 0.00 12 1024.0
20180523223932 82 317 2.0 8.0 0.00 0.18 0.00 12 1024.0
20180523223429 82 80 0.0 10.0 0.00 0.18 0.00 12 1024.0
20180523222929 82 129 2.0 10.0 0.00 0.18 0.00 12 1024.0
20180523222428 81 274 5.0 10.0 0.00 0.18 0.00 12 1024.2
20180523221929 81 178 4.0 8.0 0.00 0.18 0.00 12 1024.2
20180523221429 81 142 6.0 8.0 0.00 0.18 0.00 10 1024.3
20180523220929 80 146 0.0 10.0 0.00 0.18 0.00 10 1024.4
20180523220429 80 173 4.0 10.0 0.00 0.18 0.00 10 1024.5
20180523215931 80 258 7.0 15.0 0.00 0.18 0.00 10 1024.5
20180523215431 80 268 3.0 15.0 0.00 0.18 0.00 10 1024.6
20180523214929 80 186 6.0 15.0 0.00 0.18 0.00 10 1024.8
20180523214429 80 190 4.0 15.0 0.00 0.18 0.00 10 1024.9
20180523213929 80 174 2.0 15.0 0.00 0.18 0.00 10 1024.9
20180523213429 80 217 6.0 15.0 0.00 0.18 0.00 10 1025.0
20180523212929 80 152 4.0 10.0 0.00 0.18 0.00 10 1025.0
20180523212428 80 158 5.0 10.0 0.00 0.18 0.00 10 1025.2
20180523211928 80 174 5.0 10.0 0.00 0.18 0.00 10 1025.1
20180523211428 80 148 3.0 20.0 0.00 0.18 0.00 10 1025.2
20180523210927 80 171 7.0 20.0 0.00 0.18 0.00 10 1025.2
20180523210427 80 178 8.0 17.0 0.00 0.18 0.00 12 1025.2
20180523205927 80 227 12.0 15.0 0.00 0.18 0.00 12 1025.1
20180523205427 80 203 5.0 10.0 0.00 0.18 0.00 11 1025.1
20180523204927 79 116 0.0 8.0 0.00 0.18 0.00 11 1025.2
20180523204427 79 259 5.0 8.0 0.00 0.18 0.00 12 1025.4
20180523203928 78 78 2.0 8.0 0.00 0.18 0.00 15 1025.1
20180523203426 78 110 0.0 8.0 0.00 0.18 0.00 17 1025.1
20180523202928 78 111 0.0 5.0 0.00 0.18 0.00 18 1025.4
20180523202426 78 109 0.0 5.0 0.00 0.18 0.00 18 1025.4
20180523201927 78 121 0.0 8.0 0.00 0.18 0.00 16 1025.4
20180523201426 78 98 0.0 8.0 0.00 0.18 0.00 14 1025.5
20180523200926 77 311 1.0 8.0 0.00 0.18 0.00 16 1025.5
20180523200426 77 86 2.0 10.0 0.00 0.18 0.00 19 1025.5
20180523195926 76 138 0.0 13.0 0.00 0.18 0.00 16 1025.5
20180523195429 76 212 5.0 15.0 0.00 0.18 0.00 17 1025.5
20180523194925 76 358 4.0 15.0 0.00 0.18 0.00 18 1025.6
20180523194426 76 108 2.0 13.0 0.00 0.18 0.00 21 1025.8
20180523193925 76 286 5.0 13.0 0.00 0.18 0.00 20 1025.8
20180523193425 76 255 8.0 13.0 0.00 0.18 0.00 19 1025.8
20180523192925 77 339 2.0 13.0 0.00 0.18 0.00 18 1026.0
20180523192426 77 181 4.0 10.0 0.00 0.18 0.00 17 1026.0
20180523191925 77 121 1.0 8.0 0.00 0.18 0.00 17 1025.8
20180523191425 76 104 0.0 8.0 0.00 0.18 0.00 16 1025.8
20180523190925 76 131 2.0 8.0 0.00 0.18 0.00 18 1025.8
20180523190425 76 150 3.0 8.0 0.00 0.18 0.00 17 1026.1
20180523185924 76 197 4.0 13.0 0.00 0.18 0.00 20 1026.1
20180523185425 76 151 7.0 13.0 0.00 0.18 0.00 21 1026.1
20180523184923 76 140 3.0 13.0 0.00 0.18 0.00 20 1026.2
20180523184424 76 160 1.0 10.0 0.00 0.18 0.00 20 1026.2
20180523183925 75 199 6.0 13.0 0.00 0.18 0.00 22 1026.2
20180523183427 75 186 7.0 13.0 0.00 0.18 0.00 21 1026.2
20180523182923 76 202 8.0 10.0 0.00 0.18 0.00 20 1026.3
20180523182424 76 115 0.0 20.0 0.00 0.18 0.00 22 1026.3
20180523181924 75 132 9.0 20.0 0.00 0.18 0.00 21 1026.3
20180523181423 76 166 4.0 20.0 0.00 0.18 0.00 22 1026.4
20180523180923 76 139 3.0 20.0 0.00 0.18 0.00 23 1026.2
20180523180423 76 174 6.0 15.0 0.00 0.18 0.00 22 1026.2
20180523175923 76 137 4.0 13.0 0.00 0.18 0.00 22 1026.2
20180523175423 75 194 6.0 13.0 0.00 0.18 0.00 22 1026.2
20180523174923 75 121 1.0 8.0 0.00 0.18 0.00 29 1026.3
20180523174423 74 119 0.0 5.0 0.00 0.18 0.00 30 1026.3
20180523173924 74 122 1.0 10.0 0.00 0.18 0.00 31 1026.4
20180523173425 73 113 2.0 10.0 0.00 0.18 0.00 32 1026.4
20180523172922 73 96 9.0 10.0 0.00 0.18 0.00 34 1026.4
20180523172423 73 122 4.0 10.0 0.00 0.18 0.00 36 1026.6
20180523171922 73 111 2.0 10.0 0.00 0.18 0.00 39 1026.7
20180523171426 73 88 2.0 10.0 0.00 0.18 0.00 38 1026.7
20180523170922 73 115 1.0 8.0 0.00 0.18 0.00 38 1026.8
20180523170422 73 125 2.0 8.0 0.00 0.18 0.00 39 1026.9
20180523165922 72 116 3.0 10.0 0.00 0.18 0.00 40 1026.9
20180523165424 72 137 4.0 10.0 0.00 0.18 0.00 39 1027.0
20180523164921 71 75 0.0 5.0 0.00 0.18 0.00 42 1027.1
20180523164423 71 118 1.0 8.0 0.00 0.18 0.00 44 1027.0
20180523163922 70 98 0.0 8.0 0.00 0.18 0.00 42 1027.1
20180523163421 70 97 3.0 8.0 0.00 0.18 0.00 45 1027.1
20180523162922 70 127 2.0 13.0 0.00 0.18 0.00 47 1027.3
20180523162421 70 120 3.0 13.0 0.00 0.18 0.00 48 1027.3
20180523161922 70 90 0.0 8.0 0.00 0.18 0.00 48 1027.4
20180523161422 70 70 3.0 5.0 0.00 0.18 0.00 49 1027.3
20180523160921 69 75 0.0 5.0 0.00 0.18 0.00 49 1027.4
20180523160421 69 111 2.0 5.0 0.00 0.18 0.00 49 1027.5
20180523155922 69 108 0.0 5.0 0.00 0.18 0.00 47 1027.5
20180523155420 68 119 0.0 5.0 0.00 0.18 0.00 48 1027.6
20180523154922 68 231 3.0 5.0 0.00 0.18 0.00 50 1027.7
20180523154421 67 113 0.0 8.0 0.00 0.18 0.00 51 1027.7
20180523153919 67 118 2.0 8.0 0.00 0.18 0.00 53 1027.7
20180523153419 67 126 4.0 5.0 0.00 0.18 0.00 54 1027.9
20180523152922 67 150 4.0 5.0 0.00 0.18 0.00 51 1027.9
20180523152420 67 102 0.0 5.0 0.00 0.18 0.00 52 1027.9
20180523151920 66 149 2.0 8.0 0.00 0.18 0.00 53 1028.0
20180523151419 65 96 0.0 8.0 0.00 0.18 0.00 53 1027.9
20180523150919 65 347 1.0 8.0 0.00 0.18 0.00 55 1027.9
20180523150420 64 87 0.0 8.0 0.00 0.18 0.00 63 1027.9
20180523145919 64 87 2.0 8.0 0.00 0.18 0.00 64 1028.0
20180523145419 63 105 0.0 5.0 0.00 0.18 0.00 65 1028.0
20180523144919 62 112 0.0 5.0 0.00 0.18 0.00 65 1028.0
20180523144419 61 120 0.0 5.0 0.00 0.18 0.00 65 1028.0
20180523143919 60 127 1.0 2.0 0.00 0.18 0.00 68 1028.0
20180523143419 60 115 0.0 2.0 0.00 0.18 0.00 69 1028.0
20180523142921 59 107 0.0 8.0 0.00 0.18 0.00 70 1028.0
20180523142418 59 120 2.0 8.0 0.00 0.18 0.00 71 1028.0
20180523141919 58 119 0.0 8.0 0.00 0.18 0.00 72 1027.9
20180523141418 58 127 2.0 5.0 0.00 0.18 0.00 72 1027.9
20180523140917 57 108 1.0 5.0 0.00 0.18 0.00 71 1027.9
20180523140417 56 128 0.0 5.0 0.00 0.18 0.00 73 1028.0
20180523135918 55 126 4.0 5.0 0.00 0.18 0.00 75 1027.9
20180523135418 55 112 2.0 8.0 0.00 0.18 0.00 75 1027.9
20180523134918 54 102 0.0 8.0 0.00 0.18 0.00 77 1027.9
20180523134418 53 129 5.0 5.0 0.00 0.18 0.00 78 1027.9
20180523133917 53 131 3.0 5.0 0.00 0.18 0.00 79 1028.0
20180523133418 52 130 1.0 5.0 0.00 0.18 0.00 80 1028.0
20180523132917 51 113 1.0 5.0 0.00 0.18 0.00 81 1028.0
20180523132418 50 103 0.0 5.0 0.00 0.18 0.00 83 1027.9
20180523131917 49 114 0.0 5.0 0.00 0.18 0.00 86 1027.9
20180523131418 49 95 0.0 8.0 0.00 0.18 0.00 88 1028.0
20180523130919 48 117 1.0 8.0 0.00 0.18 0.00 91 1028.0
20180523130417 48 111 1.0 2.0 0.00 0.18 0.00 91 1028.0
20180523125917 48 111 0.0 8.0 0.00 0.18 0.00 94 1027.9
20180523125417 47 113 0.0 8.0 0.00 0.18 0.00 96 1028.0
20180523124917 47 101 0.0 5.0 0.00 0.18 0.00 97 1028.0
20180523124419 47 123 2.0 2.0 0.00 0.18 0.00 98 1028.0
20180523123918 46 153 0.0 2.0 0.00 0.18 0.00 98 1027.9
20180523123415 46 141 0.0 2.0 0.00 0.18 0.00 98 1028.0
20180523122917 46 125 0.0 2.0 0.00 0.18 0.00 98 1028.0
20180523122418 46 106 0.0 2.0 0.00 0.18 0.00 98 1027.9
20180523121916 46 101 0.0 2.0 0.00 0.18 0.00 97 1028.0
20180523121416 46 126 0.0 5.0 0.00 0.18 0.00 97 1028.0
20180523120916 46 99 1.0 5.0 0.00 0.18 0.00 97 1027.9
20180523120416 46 114 0.0 5.0 0.00 0.18 0.00 97 1027.9
20180523115916 46 128 0.0 2.0 0.00 0.18 0.00 97 1027.7
20180523115415 46 108 0.0 2.0 0.00 0.18 0.00 97 1027.7
20180523114915 46 116 0.0 0.0 0.00 0.18 0.00 99 1027.7
20180523114418 46 130 0.0 2.0 0.00 0.18 0.00 99 1027.7
20180523113915 46 120 0.0 2.0 0.00 0.18 0.00 99 1027.7
20180523113414 46 109 0.0 2.0 0.00 0.18 0.00 99 1027.6
20180523112915 46 104 0.0 2.0 0.00 0.18 0.00 99 1027.7
20180523112415 46 119 0.0 5.0 0.00 0.18 0.00 99 1027.7
20180523111914 46 122 1.0 5.0 0.00 0.18 0.00 97 1027.7
20180523111414 46 119 0.0 5.0 0.00 0.18 0.00 97 1027.7
20180523110915 46 134 3.0 5.0 0.00 0.18 0.00 97 1027.6
20180523110417 46 112 0.0 2.0 0.00 0.18 0.00 97 1027.6
20180523105914 46 104 0.0 5.0 0.00 0.18 0.00 97 1027.5
20180523105414 46 113 0.0 5.0 0.00 0.18 0.00 97 1027.5
20180523104914 46 120 0.0 5.0 0.00 0.18 0.00 97 1027.6
20180523104414 46 127 0.0 5.0 0.00 0.18 0.00 97 1027.5
20180523103914 46 136 0.0 5.0 0.00 0.18 0.00 97 1027.5
20180523103414 47 104 0.0 0.0 0.00 0.18 0.00 99 1027.4
20180523102913 47 107 0.0 0.0 0.00 0.18 0.00 99 1027.3
20180523102413 47 109 0.0 0.0 0.00 0.18 0.00 99 1027.1
20180523101915 47 102 0.0 5.0 0.00 0.18 0.00 97 1027.3
20180523101413 47 106 0.0 5.0 0.00 0.18 0.00 99 1027.1
20180523100913 47 115 0.0 2.0 0.00 0.18 0.00 99 1027.1
20180523100417 47 125 2.0 2.0 0.00 0.18 0.00 99 1027.1
20180523095913 47 102 0.0 2.0 0.00 0.18 0.00 99 1027.0
20180523095412 47 107 0.0 2.0 0.00 0.18 0.00 99 1026.9
20180523094913 47 104 0.0 2.0 0.00 0.18 0.00 99 1026.9
20180523094415 48 107 0.0 0.0 0.00 0.18 0.00 99 1026.9
20180523093911 48 101 0.0 0.0 0.00 0.18 0.00 99 1026.8
20180523093412 48 102 0.0 2.0 0.00 0.18 0.00 99 1026.9
20180523092911 48 106 0.0 2.0 0.00 0.18 0.00 99 1027.1
20180523092411 48 101 0.0 2.0 0.00 0.18 0.00 99 1027.0
20180523091914 48 104 0.0 5.0 0.00 0.18 0.00 99 1027.0
20180523091412 48 109 0.0 5.0 0.00 0.18 0.00 99 1026.9
20180523090912 48 112 0.0 2.0 0.00 0.18 0.00 99 1027.0
20180523090416 48 106 0.0 2.0 0.00 0.18 0.00 99 1026.9
20180523085912 48 102 0.0 2.0 0.00 0.18 0.00 99 1026.9
20180523085411 49 115 0.0 2.0 0.00 0.18 0.00 99 1026.9
20180523084913 49 101 0.0 0.0 0.00 0.18 0.00 99 1026.9
20180523084411 49 109 0.0 2.0 0.00 0.18 0.00 99 1026.9
20180523083910 49 106 0.0 2.0 0.00 0.18 0.00 99 1026.9
20180523083411 50 97 0.0 2.0 0.00 0.18 0.00 99 1026.9
20180523082910 50 115 0.0 2.0 0.00 0.18 0.00 99 1026.9
20180523082410 50 90 0.0 0.0 0.00 0.18 0.00 99 1026.9
20180523081913 50 115 0.0 2.0 0.00 0.18 0.00 99 1026.9
20180523081410 50 105 0.0 2.0 0.00 0.18 0.00 99 1026.8
20180523080910 51 106 0.0 0.0 0.00 0.18 0.00 99 1026.7
20180523080411 51 126 0.0 0.0 0.00 0.18 0.00 99 1026.6
20180523075913 51 103 0.0 2.0 0.00 0.18 0.00 99 1026.6
20180523075410 51 103 0.0 2.0 0.00 0.18 0.00 99 1026.4
20180523074911 51 116 0.0 2.0 0.00 0.18 0.00 99 1026.7
20180523074410 51 116 0.0 0.0 0.00 0.18 0.00 99 1026.4
20180523073910 51 108 0.0 2.0 0.00 0.18 0.00 99 1026.3
20180523073410 52 104 0.0 2.0 0.00 0.18 0.00 99 1026.3
20180523072909 52 104 0.0 0.0 0.00 0.18 0.00 99 1026.4
20180523072409 52 104 0.0 0.0 0.00 0.18 0.00 99 1026.3
20180523071913 52 116 0.0 0.0 0.00 0.18 0.00 98 1026.3
20180523071411 53 103 0.0 0.0 0.00 0.18 0.00 98 1026.4
20180523070909 53 115 0.0 0.0 0.00 0.18 0.00 98 1026.6
20180523070409 53 99 0.0 2.0 0.00 0.18 0.00 98 1026.4
20180523065911 53 129 0.0 2.0 0.00 0.18 0.00 98 1026.4
20180523065409 53 103 0.0 0.0 0.00 0.18 0.00 98 1026.3
20180523064909 53 120 0.0 0.0 0.00 0.18 0.00 97 1026.6
20180523064408 54 103 0.0 0.0 0.00 0.18 0.00 96 1026.6
20180523063909 54 110 0.0 0.0 0.00 0.18 0.00 95 1026.3
20180523063409 54 108 0.0 0.0 0.00 0.18 0.00 95 1026.3
20180523062908 55 105 0.0 0.0 0.00 0.18 0.00 93 1026.3
20180523062408 55 104 0.0 0.0 0.00 0.18 0.00 93 1026.4
20180523061907 55 142 0.0 0.0 0.00 0.18 0.00 93 1026.4
20180523061409 55 120 0.0 0.0 0.00 0.18 0.00 94 1026.4
20180523060908 55 129 0.0 0.0 0.00 0.18 0.00 94 1026.7
20180523060408 55 134 0.0 0.0 0.00 0.18 0.00 95 1026.7
20180523055908 55 111 0.0 0.0 0.00 0.18 0.18 95 1026.7